[[{"header":{"parameterUnit":"m.s-1","parameterCategory":1,"la1":30.2991,"la2":30.254,"lo1":-89.0895,"lo2":-89.0444,"dy":0.0017,"dx":0.0017,"nx":28,"ny":28,"refTime":"2023-07-27T03:00:00:Z","depth":0,"parameterNumber":2,"parameterNumberName":"U-component_of_WINDS"},"data":[0,0,0,0,0,0,0,0,0,0,0,0,0,0,0,0,0,0,0,0,0,0,0,0,0,0,0,0,0,0,0,0,0,0,0,0,0,0,0,0,0,0,0,0,0,0,0,0,0,0,0,0,0,0,0,0,0,0,2.0438,2.0439,0,2.0505,2.0505,2.0506,2.0475,2.0474,2.0472,2.047,2.0539,2.0542,2.0545,0,0,0,0,0,0,0,0,0,0,0,0,0,2.0284,2.0287,2.0438,2.0439,2.044,2.0505,2.0506,2.0506,2.0476,2.0474,2.0471,2.047,2.0538,2.0542,2.0546,0,0,0,0,0,0,0,0,0,0,0,0,0,2.0351,2.0288,2.0438,2.0432,2.0432,2.0504,2.0506,2.0507,2.0476,2.0473,2.0471,2.0469,2.0536,2.0541,2.0546,2.0628,0,0,2.0562,2.0564,0,0,0,0,0,0,0,0,2.0347,2.0356,2.0432,2.0433,2.0433,2.0479,2.0476,2.0547,2.0477,2.0459,2.047,2.0467,2.0521,2.0527,2.0545,2.0631,2.0634,2.0562,2.0565,2.0568,2.0569,0,0,0,0,0,0,0,2.0342,2.0353,2.0465,2.0433,2.0434,2.0426,2.0433,2.0489,2.0504,2.0461,2.0459,2.0467,2.0521,2.054,2.0547,2.0635,2.0562,2.0567,2.057,2.0572,2.0789,2.0792,0,0,0,0,0,0,2.0338,2.035,2.0462,2.0467,2.0383,2.0431,2.0438,2.0467,2.0503,2.0506,2.0469,2.0465,2.0533,2.0541,2.0549,2.0645,2.0568,2.0572,2.0575,2.0787,2.079,2.0793,0,0,0,0,0,0,2.0335,2.0348,2.046,2.0407,2.0421,2.0436,2.0468,2.047,2.0489,2.0509,2.0511,2.0487,2.0531,2.0542,2.0608,2.0647,2.0575,2.0579,2.0783,2.0788,2.0791,2.084,0,0,0,0,0,0,2.033,2.0347,2.0379,2.0408,2.0424,2.0518,2.0471,2.0473,2.0498,2.0494,2.0526,2.0529,2.053,2.0601,2.0613,2.0653,2.0583,2.078,2.0785,2.079,2.0835,2.0845,2.0854,0,0,0,0,0,2.0325,2.039,2.038,2.0394,2.0464,2.0521,2.0529,2.0529,2.0501,2.0533,2.0545,2.0528,2.0641,2.0608,2.0621,2.0663,2.0777,2.0784,2.079,2.083,2.0843,2.0854,0,0,0,0,0,0,2.0365,2.0394,2.0384,2.0461,2.0488,2.0515,2.0555,2.0543,2.0579,2.0574,2.0572,2.0579,2.0648,2.0662,2.0625,2.0743,2.0705,2.0714,2.0731,2.0743,2.0753,2.0747,2.0587,0,0,0,0,0,2.0383,2.0427,2.045,2.0516,2.053,2.054,2.0565,2.0562,2.0591,2.0602,2.062,2.0648,2.069,2.0718,2.0757,2.0837,2.0843,2.0872,2.0882,2.089,2.0897,2.0939,2.0952,2.0813,2.0813,2.0813,0,0,2.0421,2.0442,2.047,2.0524,2.0545,2.059,2.055,2.06,2.0633,2.061,2.0673,2.0687,2.0719,2.0791,2.0824,2.0806,2.0937,2.0897,2.0904,2.0907,2.0946,2.0959,2.0971,2.0817,2.0816,2.0816,0,0,2.0511,2.0532,2.0588,2.061,2.0642,2.0648,2.0662,2.069,2.0698,2.0762,2.0745,2.0784,2.0857,2.0879,2.09,2.0998,2.0983,2.1011,2.106,2.11,2.1111,2.1121,2.1154,2.1166,2.1018,2.1019,2.1019,0,2.0554,2.0621,2.0619,2.0669,2.0693,2.0674,2.073,2.0751,2.0795,2.0811,2.079,2.0879,2.0899,2.0976,2.0999,2.1018,2.1032,2.1007,2.111,2.112,2.1128,2.116,2.1173,2.1022,2.1021,2.1021,2.1021,0,2.067,2.0717,2.0758,2.08,2.0829,2.0882,2.0887,2.0917,2.0911,2.0919,2.0983,2.1006,2.1049,2.1067,2.1063,2.1143,2.113,2.111,2.1071,2.1145,2.1174,2.1187,2.1026,2.1025,2.1024,2.1023,0,0,2.0789,2.0828,2.0843,2.0861,2.0894,2.093,2.0982,2.1023,2.1047,2.1078,2.112,2.1181,2.1162,2.1186,2.1183,2.1219,2.1292,2.1193,2.1194,2.121,2.138,2.1395,2.1409,2.1283,2.1285,2.1287,2.1377,0,2.0881,2.0971,2.097,2.1053,2.1095,2.1077,2.1122,2.1147,2.1156,2.1192,2.1202,2.1245,2.1216,2.123,2.1265,2.1276,2.1326,2.127,2.1321,2.1323,2.1313,2.1425,2.144,2.1524,2.1389,2.1391,2.1392,0,2.1,2.1033,2.1121,2.1146,2.1164,2.1204,2.1241,2.1277,2.1304,2.1308,2.1334,2.1326,2.1377,2.1338,2.1408,2.1369,2.139,2.1399,2.1402,2.1406,2.1361,2.143,2.1551,2.1563,2.1411,2.1409,2.1408,0,2.1076,2.1143,2.1203,2.1219,2.1251,2.1279,2.1294,2.1319,2.1343,2.1375,2.1391,2.1429,2.145,2.148,2.1482,2.1453,2.1552,2.1513,2.1556,2.1556,2.1577,2.1575,2.1701,2.1593,2.1593,2.1592,2.1592,0,2.1178,2.1232,2.1237,2.1274,2.1333,2.1331,2.139,2.1402,2.1424,2.1462,2.1449,2.1485,2.1487,2.1523,2.1526,2.1582,2.1592,2.1596,2.1596,2.1597,2.1596,2.161,2.1603,2.1596,2.1595,2.1594,2.1594,0,2.1272,2.1278,2.1342,2.1366,2.1374,2.1416,2.1436,2.1471,2.1478,2.1527,2.1538,2.155,2.1592,2.1597,2.1647,2.1649,2.1717,2.1711,2.1707,2.1706,2.1748,2.1743,2.1886,2.1904,2.1785,2.1786,2.1787,0,2.1336,2.1377,2.1405,2.1429,2.1445,2.1485,2.151,2.1509,2.1535,2.1568,2.1599,2.164,2.1673,2.1742,2.1754,2.1792,2.1786,2.1833,2.1792,2.179,2.1785,2.1782,2.1785,2.1841,2.1842,2.1844,2.1844,0,2.1449,2.1449,2.1485,2.1521,2.1551,2.1579,2.1606,2.1627,2.163,2.166,2.1703,2.1728,2.1778,2.1819,2.1856,2.187,2.1857,2.1858,2.1869,2.187,2.1865,2.1866,2.1728,2.1854,2.1853,2.1852,2.1852,2.1851,2.1529,2.1563,2.1588,2.1627,2.1647,2.1673,2.1706,2.1716,2.1752,2.1793,2.179,2.1837,2.1862,2.191,2.1927,2.1964,2.1948,2.1965,2.1969,2.1973,2.1976,2.186,2.1971,2.197,2.197,2.197,2.197,0,2.1639,2.1654,2.169,2.1728,2.1758,2.1744,2.1772,2.1799,2.184,2.1865,2.1897,2.1945,2.1984,2.1999,2.2037,2.2063,2.2058,2.2073,2.207,2.2073,2.1989,2.1975,2.2076,2.2076,2.2076,2.2076,2.2076,2.2076,2.17,2.1757,2.176,2.1826,2.184,2.1886,2.1903,2.1926,2.1945,2.1999,2.2031,2.2041,2.2061,2.21,2.2134,2.2137,2.2151,2.2168,2.2169,2.209,2.2079,2.2069,2.2055,2.2172,2.2172,2.225,2.225,2.2251]},{"header":{"parameterUnit":"m.s-1","parameterCategory":1,"la1":30.2991,"la2":30.254,"lo1":-89.0895,"lo2":-89.0444,"dy":0.0017,"dx":0.0017,"nx":28,"ny":28,"refTime":"2023-07-27T03:00:00:Z","depth":0,"parameterNumber":3,"parameterNumberName":"V-component_of_WINDS"},"data":[0,0,0,0,0,0,0,0,0,0,0,0,0,0,0,0,0,0,0,0,0,0,0,0,0,0,0,0,0,0,0,0,0,0,0,0,0,0,0,0,0,0,0,0,0,0,0,0,0,0,0,0,0,0,0,0,0,0,-0.281,-0.281,0,-0.2832,-0.2832,-0.2832,-0.2877,-0.2878,-0.2879,-0.288,-0.2903,-0.2902,-0.2902,0,0,0,0,0,0,0,0,0,0,0,0,0,-0.2807,-0.2807,-0.281,-0.281,-0.281,-0.2832,-0.2832,-0.2832,-0.2877,-0.2878,-0.2879,-0.288,-0.2903,-0.2902,-0.2902,0,0,0,0,0,0,0,0,0,0,0,0,0,-0.2817,-0.2807,-0.281,-0.2835,-0.2838,-0.2832,-0.2832,-0.2832,-0.2877,-0.2878,-0.288,-0.2881,-0.2903,-0.2902,-0.2902,-0.2873,0,0,-0.2901,-0.2901,0,0,0,0,0,0,0,0,-0.2816,-0.2817,-0.2831,-0.2833,-0.2836,-0.2853,-0.284,-0.2846,-0.2877,-0.2862,-0.288,-0.2882,-0.2885,-0.2886,-0.2887,-0.2874,-0.2875,-0.2901,-0.2901,-0.29,-0.29,0,0,0,0,0,0,0,-0.2815,-0.2816,-0.2818,-0.2831,-0.2834,-0.2846,-0.2849,-0.2841,-0.2866,-0.2863,-0.2867,-0.2869,-0.2887,-0.2888,-0.2888,-0.2875,-0.2901,-0.2901,-0.29,-0.29,-0.284,-0.2839,0,0,0,0,0,0,-0.2811,-0.2815,-0.2818,-0.2819,-0.2829,-0.2845,-0.2848,-0.2846,-0.2866,-0.287,-0.2868,-0.2871,-0.2888,-0.2889,-0.2889,-0.2857,-0.29,-0.29,-0.29,-0.2842,-0.284,-0.2839,0,0,0,0,0,0,-0.2811,-0.2811,-0.2817,-0.2818,-0.282,-0.2843,-0.2841,-0.2846,-0.2847,-0.2869,-0.2874,-0.2864,-0.2889,-0.289,-0.2877,-0.2858,-0.29,-0.29,-0.2843,-0.2841,-0.2839,-0.2792,0,0,0,0,0,0,-0.281,-0.281,-0.2799,-0.2817,-0.2819,-0.2803,-0.284,-0.2846,-0.2846,-0.2851,-0.2867,-0.2871,-0.289,-0.2877,-0.2876,-0.2859,-0.2899,-0.2845,-0.2842,-0.284,-0.2795,-0.2788,-0.2782,0,0,0,0,0,-0.281,-0.2784,-0.2798,-0.2798,-0.2806,-0.2802,-0.2804,-0.2826,-0.2845,-0.2834,-0.2848,-0.287,-0.2861,-0.2875,-0.2875,-0.2857,-0.2846,-0.2843,-0.284,-0.2798,-0.2789,-0.2782,0,0,0,0,0,0,-0.2763,-0.2787,-0.2803,-0.2782,-0.279,-0.281,-0.2797,-0.2816,-0.2819,-0.2823,-0.2851,-0.2854,-0.2837,-0.2846,-0.2862,-0.283,-0.2857,-0.2854,-0.2825,-0.2817,-0.2811,-0.2809,-0.2899,0,0,0,0,0,-0.275,-0.2745,-0.2767,-0.2746,-0.275,-0.2772,-0.2772,-0.2789,-0.2798,-0.2801,-0.2814,-0.2822,-0.2822,-0.282,-0.282,-0.2797,-0.2801,-0.2784,-0.2778,-0.2773,-0.2769,-0.2759,-0.2751,-0.2828,-0.2828,-0.2828,0,0,-0.2723,-0.2736,-0.2731,-0.2737,-0.2745,-0.274,-0.2775,-0.2767,-0.2764,-0.28,-0.2789,-0.2799,-0.281,-0.2792,-0.2785,-0.2799,-0.2749,-0.2769,-0.2764,-0.2764,-0.2755,-0.2747,-0.2741,-0.2826,-0.2827,-0.2827,0,0,-0.2671,-0.2681,-0.2665,-0.2673,-0.2685,-0.27,-0.2697,-0.2714,-0.2723,-0.2712,-0.2739,-0.2736,-0.2733,-0.274,-0.2743,-0.2697,-0.2717,-0.2696,-0.2663,-0.2652,-0.2646,-0.2641,-0.2624,-0.2618,-0.2693,-0.2693,-0.2692,0,-0.2637,-0.2629,-0.2655,-0.2646,-0.2648,-0.2681,-0.2666,-0.2673,-0.2684,-0.2685,-0.27,-0.2699,-0.2709,-0.2693,-0.2682,-0.2683,-0.268,-0.2694,-0.2645,-0.264,-0.2635,-0.262,-0.2614,-0.269,-0.269,-0.269,-0.2691,0,-0.2586,-0.2581,-0.2567,-0.2577,-0.2578,-0.2566,-0.259,-0.2588,-0.2606,-0.262,-0.2609,-0.2622,-0.2626,-0.2624,-0.2641,-0.2611,-0.262,-0.264,-0.2667,-0.2625,-0.2611,-0.2605,-0.2686,-0.2687,-0.2688,-0.2688,0,0,-0.2503,-0.253,-0.2524,-0.253,-0.2546,-0.2543,-0.2533,-0.2537,-0.2535,-0.2542,-0.2535,-0.2533,-0.2552,-0.2555,-0.2573,-0.2564,-0.2527,-0.2585,-0.2586,-0.2574,-0.2496,-0.248,-0.2473,-0.2541,-0.254,-0.2539,-0.2495,0,-0.2455,-0.2439,-0.2463,-0.2442,-0.2438,-0.247,-0.2462,-0.2472,-0.2485,-0.2484,-0.2499,-0.2497,-0.2522,-0.2525,-0.2517,-0.2533,-0.2511,-0.2536,-0.2535,-0.2534,-0.253,-0.2466,-0.2449,-0.2407,-0.249,-0.2489,-0.2488,0,-0.2397,-0.2402,-0.238,-0.2399,-0.2398,-0.239,-0.2397,-0.2395,-0.2407,-0.2418,-0.2423,-0.2444,-0.2437,-0.2464,-0.2454,-0.2471,-0.2472,-0.248,-0.2478,-0.2479,-0.2508,-0.2464,-0.2394,-0.2387,-0.248,-0.2481,-0.2481,0,-0.2339,-0.234,-0.2328,-0.2332,-0.2353,-0.2347,-0.2356,-0.2369,-0.2371,-0.2377,-0.2378,-0.2383,-0.2385,-0.2389,-0.2412,-0.243,-0.24,-0.2429,-0.2409,-0.2408,-0.24,-0.24,-0.2328,-0.2401,-0.2401,-0.2401,-0.2402,0,-0.2282,-0.2268,-0.2302,-0.2294,-0.228,-0.2307,-0.2292,-0.2304,-0.2316,-0.2312,-0.2341,-0.2337,-0.2367,-0.2366,-0.2384,-0.2374,-0.2375,-0.2383,-0.2388,-0.238,-0.2379,-0.2381,-0.2384,-0.24,-0.24,-0.24,-0.2401,0,-0.2214,-0.2237,-0.2225,-0.2247,-0.2253,-0.2241,-0.226,-0.2254,-0.2271,-0.2265,-0.2265,-0.2291,-0.2291,-0.2315,-0.232,-0.2332,-0.2314,-0.2325,-0.231,-0.2313,-0.2292,-0.2293,-0.2218,-0.221,-0.2288,-0.2287,-0.2287,0,-0.2176,-0.2166,-0.2188,-0.2187,-0.2194,-0.2193,-0.2195,-0.2222,-0.2223,-0.2237,-0.223,-0.2233,-0.2237,-0.2236,-0.2255,-0.226,-0.2271,-0.2244,-0.2271,-0.2264,-0.227,-0.227,-0.227,-0.2238,-0.2237,-0.2236,-0.2235,0,-0.2107,-0.2119,-0.212,-0.2126,-0.2128,-0.2134,-0.2141,-0.2139,-0.217,-0.217,-0.2171,-0.2174,-0.218,-0.2183,-0.2191,-0.2201,-0.2223,-0.2227,-0.2223,-0.2214,-0.2206,-0.221,-0.2294,-0.2228,-0.2229,-0.2229,-0.223,-0.223,-0.2053,-0.2046,-0.206,-0.2061,-0.207,-0.2077,-0.2073,-0.2089,-0.209,-0.2097,-0.2114,-0.2113,-0.2127,-0.214,-0.2148,-0.2148,-0.2162,-0.2155,-0.2153,-0.2151,-0.2147,-0.2207,-0.215,-0.215,-0.215,-0.215,-0.2151,0,-0.1985,-0.1996,-0.1997,-0.2007,-0.2008,-0.203,-0.204,-0.204,-0.2038,-0.2049,-0.2053,-0.2055,-0.2058,-0.2078,-0.2084,-0.208,-0.209,-0.208,-0.2081,-0.2083,-0.2135,-0.2138,-0.2072,-0.2072,-0.2072,-0.2072,-0.2072,-0.2072,-0.1949,-0.1938,-0.1952,-0.1947,-0.1959,-0.1957,-0.1961,-0.1968,-0.1977,-0.1978,-0.1981,-0.1994,-0.2009,-0.2017,-0.2021,-0.2027,-0.2028,-0.2014,-0.2024,-0.2071,-0.2079,-0.2086,-0.2089,-0.2014,-0.2014,-0.1972,-0.1972,-0.1971]}]]